TimeEST,TemperatureF,Dew PointF,Humidity,Sea Level PressureIn,VisibilityMPH,Wind Direction,Wind SpeedMPH,Gust SpeedMPH,PrecipitationIn,Events,Conditions,WindDirDegrees,DateUTC
12:51 AM,34.0,28.0,79,29.90,10.0,Variable,3.5,-,N/A,,Clear,0,2012-12-19 05:51:00
1:51 AM,37.0,28.0,70,29.92,10.0,WSW,6.9,-,N/A,,Clear,250,2012-12-19 06:51:00
2:51 AM,37.0,28.9,73,29.94,10.0,SW,9.2,-,N/A,,Overcast,230,2012-12-19 07:51:00
3:51 AM,37.0,28.9,73,29.95,10.0,SW,11.5,-,N/A,,Mostly Cloudy,230,2012-12-19 08:51:00
4:51 AM,37.9,28.9,70,29.96,10.0,SW,10.4,-,N/A,,Overcast,230,2012-12-19 09:51:00
5:51 AM,39.0,30.0,70,29.97,10.0,WSW,3.5,-,N/A,,Overcast,240,2012-12-19 10:51:00
6:51 AM,37.9,30.0,73,30.01,10.0,SW,5.8,-,N/A,,Clear,220,2012-12-19 11:51:00
7:51 AM,37.0,30.0,76,30.04,10.0,SW,6.9,-,N/A,,Clear,230,2012-12-19 12:51:00
8:51 AM,39.9,30.9,70,30.06,10.0,WSW,9.2,-,N/A,,Clear,250,2012-12-19 13:51:00
9:51 AM,44.1,34.0,68,30.06,10.0,West,6.9,-,N/A,,Clear,280,2012-12-19 14:51:00
10:32 AM,44.6,35.6,71,30.02,10.0,West,4.6,-,N/A,,Mostly Cloudy,260,2012-12-19 15:32:00
10:51 AM,45.0,35.1,68,30.06,10.0,WSW,9.2,-,N/A,,Mostly Cloudy,240,2012-12-19 15:51:00
11:02 AM,46.4,35.6,66,30.03,10.0,WSW,11.5,-,N/A,,Scattered Clouds,240,2012-12-19 16:02:00
11:51 AM,48.0,36.0,63,30.06,10.0,West,10.4,-,N/A,,Clear,260,2012-12-19 16:51:00
12:51 PM,50.0,34.0,54,30.04,10.0,West,9.2,-,N/A,,Clear,270,2012-12-19 17:51:00
1:51 PM,51.1,34.0,52,30.03,10.0,WSW,11.5,-,N/A,,Clear,250,2012-12-19 18:51:00
2:51 PM,52.0,34.0,50,30.04,10.0,West,6.9,-,N/A,,Clear,270,2012-12-19 19:51:00
3:51 PM,51.1,32.0,48,30.06,10.0,WNW,6.9,-,N/A,,Clear,300,2012-12-19 20:51:00
4:51 PM,48.0,33.1,56,30.08,10.0,West,4.6,-,N/A,,Clear,260,2012-12-19 21:51:00
5:51 PM,45.0,33.1,63,30.10,10.0,Calm,Calm,-,N/A,,Clear,0,2012-12-19 22:51:00
6:51 PM,41.0,32.0,70,30.13,10.0,Calm,Calm,-,N/A,,Clear,0,2012-12-19 23:51:00
7:51 PM,39.9,30.9,70,30.14,10.0,Calm,Calm,-,N/A,,Clear,0,2012-12-20 00:51:00
8:51 PM,41.0,30.9,67,30.13,10.0,Calm,Calm,-,N/A,,Clear,0,2012-12-20 01:51:00
9:51 PM,39.9,30.9,70,30.12,10.0,SE,3.5,-,N/A,,Clear,130,2012-12-20 02:51:00
10:51 PM,39.0,30.9,73,30.13,10.0,SE,4.6,-,N/A,,Clear,140,2012-12-20 03:51:00
11:51 PM,42.1,32.0,67,30.10,10.0,SE,6.9,-,N/A,,Clear,130,2012-12-20 04:51:00